GFSMA_925_thetae_000.txt.gz
Theta_e
309 309 309 309 310 310 311 311 311 313 316 320 324 329 334 341 341 339 336 340 336 333 333 337 339 335 330 328 330 332 329 329 328 327 327 327 327 326 325 324 322 322 322
308 308 308 308 309 309 309 310 311 312 314 316 320 323 333 332 337 340 340 337 338 332 331 336 338 337 333 330 329 333 331 327 328 328 327 328 327 326 326 323 322 322 322
307 307 307 307 307 307 308 309 309 310 312 314 317 321 323 332 331 332 338 339 338 334 332 331 338 337 335 331 329 333 331 328 327 328 327 327 326 326 326 323 323 323 322
306 306 307 307 306 306 307 308 308 309 310 311 313 317 321 326 326 323 329 337 338 336 332 329 333 338 336 333 331 333 329 327 326 328 328 327 326 325 326 325 323 322 322
304 305 306 306 305 305 305 306 306 307 309 309 310 311 313 317 327 329 326 329 334 337 335 333 329 334 337 335 333 334 332 328 328 328 327 327 327 325 325 325 324 323 323
303 304 304 305 304 304 304 304 306 307 308 308 310 312 313 315 318 323 331 328 329 335 335 333 330 328 335 335 334 333 331 329 329 328 328 327 327 326 325 325 324 324 323
302 303 303 303 303 303 303 304 305 304 306 308 308 310 311 312 313 316 323 331 332 334 335 333 332 327 330 334 333 334 333 331 329 328 328 329 327 327 326 324 323 323 324
301 302 302 302 302 302 302 303 303 304 304 305 307 307 308 309 311 313 319 325 330 333 334 334 332 331 327 328 333 332 333 331 330 329 329 329 328 328 327 325 324 324 324
301 301 301 301 301 301 301 302 302 303 304 304 305 306 307 308 308 308 311 313 324 328 331 332 332 330 328 327 332 332 332 329 330 330 330 329 329 328 328 327 326 325 324
301 301 301 301 301 301 301 301 301 302 302 303 303 304 306 306 307 309 310 311 312 325 328 331 331 331 330 330 330 331 330 329 330 330 331 330 329 328 328 327 327 325 324
300 300 300 301 301 301 301 301 301 301 301 301 303 305 304 304 305 308 310 310 310 315 326 329 330 330 331 331 331 331 329 327 330 329 329 330 329 329 329 328 327 325 324
300 300 300 300 300 300 300 301 300 301 302 302 302 302 303 303 304 306 309 309 310 310 309 327 329 329 330 330 330 330 328 326 327 330 329 329 329 329 329 329 327 325 323
300 300 300 300 300 300 300 300 300 300 300 302 302 303 303 302 302 305 307 308 310 309 309 324 327 328 328 329 329 329 328 326 325 330 328 327 328 329 328 328 326 325 322
299 300 300 300 299 299 300 300 300 300 300 301 302 303 302 301 302 304 305 306 309 308 307 312 325 328 327 328 328 328 327 326 325 327 327 326 327 328 327 327 326 323 320
300 300 300 299 299 300 299 299 300 299 300 303 302 300 301 301 302 303 304 305 308 309 309 312 325 326 326 326 326 326 328 326 325 326 326 325 325 327 326 325 323 320 320
300 300 299 299 299 299 299 299 299 300 302 301 299 300 300 300 301 302 304 307 310 309 310 315 322 326 324 326 326 327 327 326 325 325 326 324 321 325 324 323 320 317 316
299 299 299 299 299 299 299 299 299 300 300 300 300 300 300 301 301 303 306 310 311 310 310 315 315 318 324 324 325 325 325 324 323 324 325 324 317 319 321 318 317 314 310
299 299 299 299 299 299 299 299 299 299 300 300 301 301 301 303 305 305 309 310 311 310 314 315 316 316 323 322 323 322 322 323 322 322 324 323 320 314 318 314 314 313 308
299 299 299 299 299 299 299 299 299 300 300 300 302 301 304 304 307 308 309 311 312 312 315 316 316 318 322 320 320 319 320 320 320 320 320 322 318 313 314 311 312 312 308
299 299 298 299 299 299 300 299 299 300 300 301 302 302 303 304 307 310 310 311 313 316 315 315 314 321 321 319 319 318 319 321 320 322 321 319 316 313 312 310 310 311 308
299 298 298 299 299 299 299 300 301 300 300 301 302 302 303 306 308 312 315 314 315 316 315 315 316 322 320 320 319 320 319 322 322 321 320 319 315 314 311 309 309 310 307
299 299 299 299 299 299 299 300 300 301 301 301 302 301 303 305 307 310 313 317 316 316 315 316 316 321 321 320 320 321 321 323 322 321 319 318 315 313 311 309 308 310 307
298 298 299 299 299 299 299 300 301 301 301 301 302 302 304 305 307 308 313 317 319 318 316 314 317 323 321 322 321 323 322 323 322 321 318 317 315 313 311 309 308 310 307
298 298 298 298 299 299 299 300 300 301 300 301 302 303 305 305 306 309 312 317 318 319 319 316 316 317 322 323 321 323 323 323 323 320 318 316 314 312 311 310 308 310 307
298 298 298 299 299 299 299 300 301 300 301 301 302 303 304 305 306 309 312 314 317 318 319 318 315 316 323 323 323 324 324 324 323 320 318 316 314 313 312 311 310 310 305
297 298 298 299 299 299 299 300 300 301 301 302 302 302 303 305 307 309 311 314 318 320 321 320 319 318 323 324 324 324 324 323 322 321 319 316 315 314 313 312 311 310 305

GFSMA_925_thetae_003.txt.gz
Theta_e
305 306 307 307 307 306 305 306 307 309 311 313 315 317 321 331 334 337 340 341 339 339 340 340 340 340 336 333 332 335 334 329 328 329 329 328 328 327 326 325 323 322 323
304 305 307 307 307 305 305 308 308 309 310 309 311 314 317 321 327 331 333 336 339 339 339 338 338 339 337 334 331 335 334 332 329 328 329 328 328 328 326 325 323 323 323
305 305 306 307 306 305 306 307 308 305 306 306 306 304 307 312 317 322 329 327 327 334 338 334 335 339 339 335 332 334 334 330 329 329 330 328 328 328 327 325 323 323 323
304 304 305 306 305 305 305 305 304 307 306 307 307 309 311 311 313 315 318 329 332 329 335 338 334 334 337 336 334 331 334 330 327 329 330 329 328 327 326 325 324 323 323
303 303 303 304 303 304 305 304 305 305 305 306 307 308 306 310 312 315 318 322 326 332 331 336 336 333 332 337 335 332 333 333 329 329 330 329 328 327 326 326 325 324 323
302 302 302 303 303 303 303 304 303 304 303 304 304 306 307 307 303 308 311 313 316 323 333 333 333 333 331 333 336 334 335 333 330 328 329 329 328 327 326 326 326 324 324
301 301 302 302 302 302 302 302 302 303 304 303 304 305 303 304 305 302 310 309 311 319 327 334 333 332 333 331 332 335 335 334 330 330 329 329 329 328 327 326 326 325 324
301 301 301 301 301 301 301 301 301 302 302 302 302 303 303 303 305 305 304 304 306 309 312 325 333 334 332 331 330 334 334 335 332 330 330 329 329 328 327 326 326 325 324
300 300 301 301 301 301 301 301 301 301 302 302 303 303 303 302 304 304 303 303 306 309 312 314 328 333 333 331 329 333 333 333 332 331 331 329 330 329 328 327 326 325 325
300 301 300 300 301 301 301 301 301 301 302 301 300 301 301 303 303 302 302 302 303 308 310 311 311 325 332 332 331 331 332 332 332 331 330 330 331 330 329 328 327 326 325
300 300 300 300 300 300 300 300 300 301 300 301 302 302 303 303 302 303 303 302 302 304 308 308 308 309 324 330 330 331 329 332 332 331 329 332 331 330 330 329 328 327 325
300 299 299 300 300 300 300 300 299 299 300 301 300 301 302 301 302 303 303 302 301 303 306 307 307 308 310 327 330 331 329 331 332 330 330 332 331 331 331 331 330 327 325
299 299 299 299 300 300 300 299 299 300 300 300 300 300 301 302 303 303 302 301 301 303 306 306 307 308 308 319 330 329 329 331 331 329 329 330 330 330 330 331 329 327 327
299 299 299 300 300 300 299 300 300 299 299 300 299 300 303 301 300 300 301 302 303 304 304 305 306 307 307 311 330 330 329 329 330 329 329 329 330 329 330 330 328 327 325
299 299 299 300 300 299 299 299 299 299 299 299 300 302 301 300 300 301 302 301 303 305 304 305 307 308 309 310 325 330 330 331 329 328 328 330 329 329 329 328 327 326 323
299 299 299 299 299 299 299 299 299 299 299 299 299 300 301 300 300 301 302 301 302 303 305 306 308 308 310 313 328 330 330 330 329 327 327 329 328 329 328 327 326 324 321
299 299 299 299 299 299 299 299 299 299 299 299 299 300 301 301 302 301 302 303 303 304 306 307 309 309 309 312 325 329 328 329 328 327 325 328 327 328 327 326 325 321 319
299 299 298 299 299 299 299 299 299 299 299 299 299 300 300 301 302 302 302 303 305 306 308 310 311 311 314 314 321 327 327 328 328 327 325 327 326 327 326 324 322 317 315
298 298 299 299 299 298 298 299 299 299 300 299 300 300 301 301 302 302 304 306 308 310 310 310 311 309 313 316 323 326 327 327 327 327 326 326 324 325 325 322 319 316 311
298 298 299 298 299 298 299 299 299 300 300 301 301 301 301 302 301 303 306 308 310 310 311 312 312 311 315 317 321 324 324 325 325 326 326 325 321 320 322 318 315 315 310
298 299 299 298 298 299 299 299 300 300 301 301 301 301 302 302 303 305 309 310 312 312 312 312 314 315 315 315 321 323 321 322 323 325 324 322 320 319 319 315 313 314 311
298 298 298 298 298 298 299 300 300 301 301 301 301 300 301 302 303 306 307 310 313 313 314 315 315 315 316 318 320 320 320 320 321 323 322 321 321 318 317 313 311 312 311
298 298 298 298 298 298 299 300 301 301 301 301 301 301 301 302 303 303 306 309 311 316 315 315 315 315 315 318 320 319 320 320 320 321 320 319 318 317 316 313 310 311 310
297 298 297 297 297 298 299 300 300 301 300 300 300 301 301 303 301 304 307 309 310 313 317 316 315 315 314 318 319 319 320 319 319 319 318 316 315 314 315 312 310 310 310
298 297 297 297 298 299 299 300 300 299 300 300 300 302 302 302 301 306 308 309 310 312 315 317 316 316 315 316 320 319 321 320 319 317 316 315 313 313 314 312 310 309 310
297 297 297 297 298 298 297 298 298 299 299 300 301 301 300 301 304 306 308 310 312 314 318 319 318 318 316 316 320 320 321 321 318 316 315 314 312 312 311 311 310 310 308

GFSMA_925_thetae_006.txt.gz
Theta_e
303 305 306 306 304 302 304 305 305 304 303 302 302 304 307 312 315 317 324 332 333 333 339 341 341 340 340 335 334 334 333 331 330 330 331 329 329 328 328 326 324 324 323
302 304 305 306 305 303 304 303 302 304 303 303 302 301 302 304 308 312 315 319 326 329 332 335 341 341 340 338 334 332 332 333 331 330 330 330 331 328 327 326 325 323 323
302 302 304 305 305 303 303 302 302 301 304 304 301 304 305 302 304 305 308 313 318 322 328 330 332 338 339 340 337 334 333 334 333 330 330 330 332 328 327 326 325 324 323
303 302 303 303 303 303 304 303 303 302 302 302 302 306 304 304 300 300 301 305 308 314 319 327 332 335 337 337 338 334 332 335 333 331 330 330 330 329 327 326 324 324 324
302 301 302 303 303 303 303 303 302 302 302 302 302 302 305 300 299 303 302 304 308 308 312 317 324 332 334 336 335 336 332 334 334 330 329 331 329 328 328 326 325 324 324
301 301 301 302 302 302 302 302 301 302 301 302 301 301 301 301 303 299 303 303 301 301 302 307 314 325 332 333 335 336 336 334 335 330 327 329 331 328 327 328 326 325 324
301 300 301 301 302 301 301 301 300 300 300 301 301 301 301 302 300 303 300 299 299 299 301 304 308 312 326 331 333 334 337 335 336 332 330 329 331 329 327 328 327 326 325
301 300 300 300 301 301 301 300 301 300 300 300 302 301 298 299 300 300 302 301 299 300 301 302 308 311 315 331 330 333 333 335 336 334 331 329 331 330 328 328 327 326 325
300 300 300 301 300 301 301 301 301 301 301 301 300 300 299 299 300 300 301 300 300 301 301 302 308 309 308 315 329 330 332 333 336 335 332 330 331 331 329 328 327 327 325
300 300 300 300 300 300 300 300 300 300 301 300 300 301 301 301 301 301 300 300 301 301 301 301 303 307 307 306 311 331 332 331 334 335 332 331 331 332 330 328 327 326 326
300 300 299 299 299 300 300 299 300 299 299 299 300 300 300 301 301 300 301 301 301 301 301 301 301 305 307 305 307 311 332 331 333 332 332 331 332 332 331 330 328 327 326
300 300 299 299 299 300 299 300 299 299 299 299 299 299 299 300 299 300 301 301 301 300 300 300 301 305 306 305 305 308 317 331 331 332 332 331 331 331 332 331 330 328 327
299 299 299 298 299 299 299 299 299 299 299 299 299 299 299 299 299 301 302 300 300 300 301 301 302 303 304 306 305 306 310 329 331 332 332 330 329 330 332 332 331 329 327
299 299 299 299 299 299 300 299 299 299 299 299 299 299 299 299 300 301 300 300 301 302 301 300 303 304 303 305 305 307 310 325 328 331 331 330 328 331 331 330 330 329 327
299 299 299 298 299 299 299 299 299 298 298 299 299 299 299 299 300 300 300 300 301 303 302 301 303 303 305 306 306 310 311 318 329 330 331 329 329 330 330 330 331 328 327
299 299 298 299 299 299 298 298 298 299 298 298 299 299 299 299 299 300 300 301 302 302 302 301 301 302 303 307 306 309 310 322 329 330 331 329 329 329 329 330 330 327 326
298 298 298 299 298 298 298 298 298 298 298 298 299 299 299 299 299 300 301 301 301 301 302 303 303 304 306 306 307 309 313 324 329 329 330 329 328 329 329 330 329 326 325
298 298 298 298 298 298 298 298 298 298 298 299 299 299 299 299 300 300 301 302 301 301 303 305 304 306 308 309 309 311 314 327 329 330 330 329 327 328 328 328 327 326 323
298 298 297 298 298 298 298 298 298 298 298 299 300 300 300 300 300 301 302 302 303 304 305 306 307 309 310 308 308 311 314 328 329 329 329 328 327 328 327 327 326 326 321
298 297 298 298 298 298 298 298 298 299 300 300 300 300 301 301 301 301 303 303 304 308 309 309 309 310 310 308 310 314 318 328 329 329 329 327 327 327 326 327 326 324 319
297 297 298 298 297 297 297 298 299 300 300 301 301 301 300 300 302 302 303 304 304 307 311 311 312 312 311 310 311 314 323 327 328 328 327 327 327 327 326 326 325 321 316
297 298 297 297 297 297 297 299 300 301 301 300 300 300 300 300 301 303 303 304 306 310 312 312 312 311 311 312 314 314 322 326 326 326 325 325 325 324 326 325 322 317 314
297 297 297 297 297 296 297 299 300 301 300 299 299 299 300 300 302 302 301 303 307 309 311 314 313 313 314 314 315 316 321 325 324 324 323 322 322 321 323 323 320 315 312
297 297 297 297 297 296 297 299 299 299 298 298 299 299 300 301 301 301 302 305 306 308 310 312 313 314 314 314 315 321 323 324 323 323 323 320 319 318 319 319 317 313 312
297 297 297 297 296 297 298 299 299 298 298 298 299 299 301 300 300 301 304 306 307 309 312 314 315 314 315 315 315 319 322 320 321 321 321 318 317 314 316 316 315 312 311
297 297 297 296 296 297 297 298 298 297 298 299 299 299 299 299 300 303 305 306 308 309 313 316 317 315 315 316 316 318 321 320 320 319 317 316 314 316 311 313 313 311 310

GFSMA_925_thetae_009.txt.gz
Theta_e
302 303 304 304 302 302 302 300 301 300 301 302 301 302 302 302 305 308 311 314 318 324 331 335 338 340 340 340 336 336 335 334 331 332 333 331 329 329 329 328 326 325 325
301 303 304 304 302 302 302 301 300 300 300 300 300 303 303 302 300 299 301 304 306 311 319 324 330 335 337 340 338 335 335 334 331 330 331 332 330 330 328 327 326 325 324
301 302 303 302 302 302 302 302 300 300 300 300 299 298 300 299 297 300 299 299 301 304 307 311 318 324 331 337 339 338 334 334 332 331 329 330 332 331 329 327 326 325 324
301 301 302 302 303 302 302 302 301 301 300 300 300 298 298 298 301 297 300 301 300 300 301 302 305 313 319 328 338 338 335 333 334 333 331 330 330 332 329 327 326 325 324
301 300 302 302 302 302 301 302 300 301 300 300 300 299 298 299 298 299 300 297 298 298 297 298 299 303 311 319 329 338 338 335 333 334 332 329 327 329 330 327 326 325 324
301 300 301 301 302 302 301 301 300 300 300 299 300 300 299 301 299 302 297 298 298 297 297 298 297 299 305 311 318 331 337 338 334 333 333 330 328 331 328 329 326 325 325
300 300 300 300 301 301 301 301 300 300 300 300 300 300 299 302 299 299 299 300 299 298 299 300 300 300 302 311 311 316 332 338 337 335 334 332 329 332 330 329 328 326 325
300 300 300 300 301 300 301 300 300 300 300 300 301 299 296 298 299 299 299 299 299 299 300 300 301 301 301 301 303 308 317 331 338 337 336 332 331 332 331 328 329 327 326
300 300 300 300 300 300 300 300 300 300 300 300 299 299 297 297 299 299 298 299 299 300 300 300 300 300 300 300 303 303 310 319 329 338 337 332 332 331 332 329 329 328 327
300 300 300 300 299 299 300 300 299 300 298 298 298 299 300 300 298 299 299 299 300 300 301 300 300 300 300 300 303 307 306 312 322 333 337 335 333 332 333 331 329 329 327
300 300 300 299 299 299 299 299 299 299 298 298 298 299 299 299 299 299 299 299 299 300 300 299 299 300 300 301 303 306 307 307 312 324 334 336 333 332 333 333 329 329 327
300 300 299 299 298 298 299 299 299 299 299 299 298 298 298 298 298 297 297 299 299 300 299 299 299 300 301 301 303 306 307 307 310 313 328 335 332 332 331 333 331 329 327
300 300 299 299 298 298 299 299 299 299 298 298 298 298 299 298 298 298 299 300 300 299 299 300 300 301 301 301 302 306 306 306 310 314 326 333 332 331 331 333 332 330 329
300 299 299 298 298 298 299 299 299 299 298 298 298 298 298 299 298 298 299 300 300 300 300 300 301 301 301 301 303 305 307 307 310 312 326 332 332 330 330 332 331 330 328
300 299 299 299 298 298 299 298 298 298 298 298 298 298 298 298 298 298 299 299 300 301 301 301 301 301 301 301 302 304 306 308 309 312 322 332 331 330 330 331 330 330 329
299 299 298 298 298 298 298 298 298 298 298 297 298 298 298 298 298 298 299 299 299 301 302 301 301 301 301 301 302 304 306 306 310 310 318 331 331 329 329 330 329 330 329
298 298 298 298 298 298 297 298 298 298 298 298 298 298 298 299 298 299 299 299 300 301 302 301 301 300 301 302 302 304 307 308 310 311 321 330 331 329 329 330 329 331 329
298 298 298 298 298 297 297 298 298 297 298 298 298 298 299 299 299 300 299 299 300 301 302 302 301 301 302 304 304 305 307 309 311 314 324 328 331 328 330 329 330 331 328
298 298 298 297 297 297 298 297 297 297 298 298 299 299 300 300 300 300 300 299 301 302 303 303 304 305 305 306 306 308 310 311 310 319 327 331 330 328 329 329 330 330 327
298 297 297 297 297 298 297 297 297 298 299 300 300 300 300 300 300 300 301 301 303 304 303 304 305 308 306 307 309 309 310 310 314 325 328 330 330 328 328 329 329 328 326
298 297 297 297 297 297 297 297 298 299 300 300 300 299 299 300 302 302 302 303 303 303 304 305 309 309 308 310 310 310 311 312 317 328 330 329 329 328 328 329 328 327 325
297 297 297 297 297 296 296 298 299 300 300 299 297 298 298 299 299 301 302 302 302 304 306 308 310 311 311 310 310 310 310 312 327 329 329 328 328 327 328 327 327 326 325
297 297 297 296 296 296 296 298 299 300 299 298 297 298 298 298 300 300 300 301 302 305 307 309 311 312 310 310 311 313 313 314 326 328 328 327 326 324 325 327 326 326 322
297 297 297 296 296 296 296 298 299 299 298 298 297 298 298 299 300 300 300 302 304 305 306 309 311 312 312 311 313 314 315 315 326 327 326 325 323 320 323 326 325 324 319
297 297 297 297 296 296 296 298 299 298 298 297 298 298 298 299 298 300 301 304 305 304 305 308 309 313 313 313 314 315 317 322 325 324 324 321 317 316 318 321 321 321 316
297 297 297 296 296 296 296 297 298 298 297 297 297 297 297 298 299 300 302 305 303 304 307 307 309 315 315 314 314 315 317 324 324 323 321 317 316 316 311 314 317 315 313

GFSMA_925_thetae_012.txt.gz
Theta_e
302 303 303 302 301 301 300 300 300 299 299 299 300 300 301 299 299 300 302 304 310 317 320 323 329 332 333 335 339 339 336 335 335 334 329 335 330 329 330 328 327 326 325
301 302 303 302 301 302 301 300 300 299 299 299 298 297 297 297 299 298 298 299 300 300 304 310 315 321 326 331 335 337 337 335 335 333 330 333 332 328 328 328 327 326 325
301 301 302 302 302 302 301 301 300 300 298 298 297 297 297 298 298 298 298 297 298 298 297 298 302 309 315 320 325 329 336 336 335 333 329 332 331 329 330 330 327 326 325
301 301 301 302 302 301 301 300 299 299 298 298 298 298 298 298 298 300 296 297 297 297 297 297 301 298 301 312 318 322 331 334 336 334 330 331 327 329 329 331 327 326 325
301 300 301 302 301 301 300 300 300 299 299 299 299 299 298 298 298 298 296 297 297 298 297 298 298 297 297 306 314 319 320 328 335 335 334 332 328 327 329 331 328 325 326
300 300 301 301 301 301 300 300 300 300 300 300 299 300 298 298 298 299 297 297 297 298 299 299 299 299 299 299 306 308 313 317 322 329 335 333 331 328 328 331 329 326 325
300 300 300 300 301 301 300 300 300 300 300 299 300 298 298 299 300 299 298 298 297 298 298 298 299 299 299 299 299 299 306 311 315 322 335 335 332 328 331 332 328 327 325
300 300 300 300 300 300 300 300 300 300 299 299 299 297 295 298 299 299 298 298 298 298 298 298 299 299 299 299 299 299 299 301 310 316 323 336 335 330 330 332 328 327 325
300 300 300 300 300 300 300 299 299 299 299 298 298 298 296 295 297 298 298 298 298 298 299 299 299 298 299 299 299 300 300 301 309 312 316 323 336 333 331 332 328 330 328
300 300 300 300 300 299 299 299 299 299 298 298 298 298 299 299 297 296 298 298 298 298 298 299 299 299 299 299 300 300 301 304 309 309 313 318 330 333 331 331 330 328 329
300 300 299 300 299 298 299 299 298 299 298 298 298 298 298 298 298 297 298 297 297 298 298 299 299 299 299 299 300 301 301 305 309 309 310 315 320 334 331 332 332 328 327
300 299 299 299 299 298 298 299 299 299 299 298 298 298 298 297 297 296 294 297 297 298 298 299 299 299 300 300 301 302 302 304 306 309 308 312 316 327 332 332 333 331 326
299 299 299 299 298 298 298 298 299 299 299 299 298 298 298 298 297 297 297 297 297 298 298 299 299 299 300 301 301 301 302 303 306 308 308 311 316 322 333 332 333 331 330
300 299 299 299 298 298 298 298 298 298 298 298 298 297 297 297 298 297 297 298 298 298 298 299 299 300 300 301 301 302 303 304 305 308 308 310 313 320 334 332 332 331 329
300 299 299 299 298 298 298 298 298 298 297 297 297 297 297 297 298 298 297 297 298 299 299 299 299 300 300 301 301 301 301 302 304 307 308 312 310 320 333 331 332 330 328
299 299 299 299 298 298 298 298 297 297 297 297 297 297 297 297 298 298 298 298 298 298 299 299 300 300 301 301 301 302 302 303 304 309 310 311 310 318 332 330 332 330 328
299 299 299 298 298 298 298 297 297 297 297 297 297 297 298 298 298 299 299 299 298 298 299 299 300 301 302 302 301 301 302 302 303 305 309 311 312 321 331 329 331 330 329
299 299 298 298 298 298 297 297 297 297 297 297 297 298 299 299 299 299 299 299 298 299 299 300 301 302 303 303 302 303 303 303 305 307 309 310 314 327 331 328 331 330 329
298 298 298 297 297 297 297 297 297 296 296 297 298 299 299 300 299 299 299 299 299 299 299 300 302 302 302 303 303 304 304 304 305 307 311 312 318 329 331 327 330 330 329
298 298 297 297 297 297 297 297 296 296 297 298 299 300 300 298 298 299 300 301 301 301 302 303 302 303 304 305 307 306 306 306 307 309 312 313 324 331 330 327 330 330 329
298 298 297 297 297 297 297 296 297 298 298 299 300 299 298 298 299 299 300 300 301 301 301 303 303 305 305 307 307 307 308 309 309 311 311 319 329 330 328 329 329 330 327
298 297 297 297 297 297 296 297 298 299 299 299 299 298 297 297 298 299 300 300 301 301 302 304 306 306 308 310 309 309 309 310 312 312 314 328 329 328 328 329 330 329 326
297 297 297 297 297 296 296 298 298 299 299 298 298 297 297 298 298 298 298 300 300 301 304 306 307 306 310 311 310 310 310 311 313 315 323 328 328 327 326 329 329 327 326
297 297 296 297 296 296 296 297 298 299 299 298 297 297 297 297 298 298 299 300 300 302 304 304 306 308 309 311 310 310 311 312 314 314 327 327 327 323 324 327 327 326 325
296 296 297 296 296 296 296 296 299 299 297 297 297 297 297 297 297 299 299 300 302 303 303 306 306 306 310 314 312 313 313 315 317 324 327 323 322 320 320 321 325 326 324
297 297 297 296 296 296 296 295 299 298 298 297 298 298 297 298 298 299 300 301 303 302 305 304 303 305 310 314 313 314 315 318 319 325 321 319 319 317 313 315 320 321 318

GFSMA_925_thetae_015.txt.gz
Theta_e
303 303 302 301 301 300 300 300 299 299 299 299 299 299 300 299 299 300 301 303 307 312 318 319 319 324 329 331 333 333 338 338 336 335 334 331 332 332 332 330 327 325 327
302 303 302 301 301 301 300 300 299 299 299 300 298 298 299 299 298 298 298 297 298 298 300 306 309 314 318 322 323 326 332 336 338 335 333 331 333 333 330 329 328 328 325
302 302 302 301 301 301 301 300 300 299 299 300 300 300 298 299 299 298 297 297 297 297 297 303 304 306 309 312 318 322 325 333 334 337 334 332 333 332 331 328 327 329 326
301 301 301 301 301 301 301 300 299 300 301 301 301 301 300 299 298 298 297 298 297 298 298 298 298 299 305 308 310 315 318 322 332 335 337 333 331 331 330 329 328 330 326
301 300 301 301 301 301 300 300 299 300 301 301 301 301 300 298 299 298 299 299 298 299 298 299 298 299 299 305 307 308 310 313 319 330 328 333 333 329 329 329 331 331 327
301 300 301 301 301 301 300 300 300 300 300 300 300 300 299 298 299 300 300 299 299 298 298 298 299 301 300 300 300 303 307 310 311 317 330 326 335 332 329 328 332 332 327
301 300 300 301 301 301 300 300 300 300 301 300 301 300 300 299 300 300 300 299 299 299 299 300 301 301 301 301 300 300 303 306 308 311 313 326 326 335 332 331 331 331 328
301 300 300 300 300 301 300 300 300 300 300 299 300 299 301 301 300 299 299 299 299 299 299 299 300 300 301 301 301 301 300 300 305 309 312 313 322 324 334 330 331 332 330
301 300 300 300 300 300 300 300 299 299 300 299 298 300 301 301 300 299 299 299 299 299 299 299 299 300 300 300 301 302 302 303 301 306 310 311 313 322 326 332 330 332 331
301 300 300 300 300 300 299 299 299 299 299 299 299 299 299 300 301 301 299 299 299 299 299 299 299 300 300 300 301 301 300 303 305 306 309 311 311 314 321 329 330 330 330
301 300 300 300 300 299 299 299 299 298 299 299 299 299 299 300 300 301 301 300 299 299 299 299 299 300 300 300 301 301 302 304 305 306 307 310 310 312 317 321 332 330 330
301 300 300 299 300 299 298 298 298 298 299 298 298 299 299 299 299 299 301 299 299 299 299 299 299 299 300 300 301 302 303 303 304 306 307 308 309 311 314 319 331 330 330
300 300 299 299 299 299 298 298 298 298 299 299 299 299 298 299 299 299 299 299 300 299 299 299 299 299 300 300 301 302 302 303 305 305 306 307 309 310 312 315 320 331 330
301 300 299 299 299 298 298 298 298 298 298 298 298 297 298 298 298 298 299 299 301 300 300 300 300 300 300 301 301 302 302 303 304 304 305 307 308 309 311 315 318 332 330
300 299 299 299 299 298 298 298 298 298 298 298 297 297 297 298 298 298 298 298 299 302 302 300 300 300 300 300 301 302 302 303 304 305 305 305 306 309 312 314 317 331 330
300 299 299 299 299 298 298 298 298 298 297 297 297 297 297 298 298 298 298 299 299 300 303 300 301 301 300 301 301 302 302 303 304 305 305 305 306 309 314 313 319 330 330
300 300 299 299 298 298 298 298 298 297 297 297 297 296 297 297 298 299 299 299 300 300 302 301 300 301 301 301 302 302 303 303 303 304 305 305 307 309 313 313 317 332 330
300 299 299 299 298 298 298 297 297 297 297 297 297 297 297 298 299 299 300 300 300 300 300 302 301 301 301 302 303 303 303 303 303 304 305 306 307 308 313 315 326 330 328
300 299 299 299 298 298 297 297 297 297 297 296 296 298 299 299 300 300 299 299 300 300 300 301 301 301 302 302 303 303 304 304 304 305 306 307 308 311 312 316 329 329 327
299 299 299 298 298 297 297 297 297 297 296 296 297 298 299 300 299 299 300 300 300 301 301 301 302 302 302 303 303 304 305 306 305 305 306 308 309 312 313 319 329 328 327
299 298 298 298 297 297 297 297 297 296 297 298 298 299 299 299 300 299 299 299 300 301 301 301 302 302 302 304 306 306 307 307 307 306 308 309 310 313 314 323 328 328 328
298 298 298 297 297 297 297 297 296 298 298 299 300 300 299 298 298 298 299 299 299 300 301 301 302 303 305 304 305 307 309 309 310 309 309 310 312 314 320 329 329 329 328
298 297 297 297 297 296 297 298 299 299 299 299 299 298 298 297 298 298 298 299 299 300 301 302 303 304 304 305 306 307 309 309 310 310 310 312 312 317 329 328 329 329 326
297 297 297 297 296 297 296 299 299 299 299 299 298 297 297 298 298 298 299 299 299 300 300 302 304 305 306 306 306 308 310 311 310 312 311 314 317 327 326 327 329 328 325
296 297 297 296 296 296 296 299 299 299 299 298 297 297 297 298 298 300 299 300 301 301 301 302 305 304 305 306 311 311 311 311 311 315 315 320 325 323 322 321 327 325 324
296 296 296 296 297 296 296 296 299 298 298 298 298 298 297 299 300 301 300 300 301 301 302 303 302 303 304 308 313 313 312 312 315 318 320 322 323 320 315 317 318 322 322

GFSMA_925_thetae_021.txt.gz
Theta_e
313 313 312 311 310 309 309 309 308 308 307 307 306 307 307 307 308 309 311 306 303 309 315 317 318 319 321 323 326 329 331 336 339 340 339 337 335 334 334 334 332 331 329
314 313 312 311 310 309 309 308 308 308 307 307 306 306 306 306 306 306 307 308 304 300 304 311 312 313 315 317 318 322 325 327 333 338 339 340 336 334 332 333 332 332 330
313 313 312 311 311 309 308 307 307 307 307 306 307 306 306 306 306 305 306 306 307 306 303 300 304 309 311 313 314 315 316 317 320 327 334 337 338 337 334 333 334 332 331
313 312 312 311 311 309 308 308 308 307 307 307 307 307 307 306 306 304 305 305 306 306 306 305 300 299 305 310 311 312 312 312 315 317 320 328 335 337 337 333 333 334 333
312 312 312 311 310 309 309 308 308 308 308 308 307 306 306 306 306 305 305 305 305 306 306 305 304 304 304 306 309 310 311 312 313 313 314 317 325 334 335 337 334 334 334
312 312 311 311 310 309 309 308 308 307 307 307 306 305 306 306 306 306 305 305 305 305 305 305 305 305 304 305 306 308 310 311 312 312 313 313 317 321 332 332 333 336 334
311 311 311 311 309 309 309 308 307 308 307 306 306 308 307 306 305 306 306 305 305 304 304 304 304 304 304 304 305 306 307 308 310 312 313 313 314 315 319 326 329 335 335
311 311 311 310 309 309 308 308 307 307 307 306 306 306 310 308 306 305 305 304 304 304 304 304 304 304 304 304 304 304 303 306 308 310 311 313 314 315 316 317 323 328 331
311 310 310 310 309 309 308 308 307 307 307 306 304 305 308 310 306 305 305 305 304 304 304 304 304 303 303 303 303 304 304 305 306 308 310 312 313 314 315 316 316 320 327
311 309 309 309 309 308 308 308 307 307 306 307 305 304 304 304 305 306 305 305 304 303 303 303 303 303 303 303 303 303 304 305 305 307 308 310 312 313 314 315 316 316 319
311 309 308 308 308 308 308 307 306 306 306 305 305 305 304 304 304 304 305 305 304 303 303 302 302 303 303 303 303 303 303 305 305 306 307 308 310 311 312 314 315 316 315
310 309 308 307 307 307 307 306 306 305 305 305 304 304 304 304 304 304 305 304 303 302 302 302 302 303 303 303 303 303 303 304 304 305 306 307 309 310 311 312 314 315 316
309 309 308 307 307 306 306 306 305 305 304 304 304 304 304 303 303 303 302 303 303 302 302 302 302 302 303 303 303 303 303 304 304 305 305 307 308 308 309 311 312 313 315
310 309 308 307 307 306 306 305 305 305 304 304 304 304 303 303 302 302 302 302 303 303 302 302 302 302 303 303 303 302 302 303 304 304 305 306 307 307 309 310 310 311 313
311 309 308 307 306 306 306 305 305 304 303 304 304 304 303 303 302 302 301 301 302 303 304 302 303 303 303 303 303 303 303 303 303 304 304 305 306 307 308 309 310 310 312
311 309 308 307 306 306 305 304 304 304 304 303 303 303 303 302 301 301 301 301 301 302 304 303 303 303 303 303 303 303 302 303 303 303 304 305 306 307 307 308 309 309 310
311 309 308 307 306 305 305 304 303 303 303 303 303 302 302 301 301 301 300 301 302 302 304 304 304 303 303 302 302 303 303 303 303 304 305 305 306 307 307 308 308 309 310
311 309 308 307 306 305 304 303 303 303 303 303 302 302 302 301 301 300 301 302 303 303 303 304 303 303 303 302 303 303 303 303 304 304 304 306 306 307 307 308 308 308 309
310 308 307 306 306 305 304 303 303 303 302 302 302 301 301 301 300 300 301 302 303 303 302 303 303 303 303 303 303 302 302 303 304 304 305 306 306 307 307 307 307 307 308
310 308 307 306 305 304 303 303 302 302 302 301 301 301 300 300 300 301 302 302 302 302 302 302 302 302 302 302 303 304 305 305 304 304 305 306 307 307 308 308 308 307 307
309 308 307 305 305 304 303 303 302 302 301 301 301 300 300 300 301 302 302 302 302 301 302 301 302 302 302 303 303 304 304 303 303 304 305 305 306 308 308 309 308 307 307
309 307 306 305 304 303 303 302 302 301 301 301 301 300 300 301 302 302 302 301 301 301 301 301 301 301 302 303 303 303 303 303 305 305 306 306 308 308 309 309 308 308 307
308 307 306 305 304 303 302 301 301 301 301 301 300 301 301 301 300 300 300 301 301 301 302 302 302 302 303 303 303 304 304 304 305 306 306 306 307 309 309 309 308 307 306
308 307 305 304 304 303 301 301 300 300 301 301 301 301 301 301 301 300 300 300 301 301 302 302 302 303 303 304 305 306 306 305 305 306 307 308 309 310 310 309 308 307 307
307 306 305 304 303 303 300 302 303 300 301 301 301 301 301 301 301 300 301 301 302 301 301 301 302 302 304 304 304 305 305 306 310 310 310 310 311 311 311 310 309 313 317
307 306 305 303 303 302 300 303 303 301 301 301 301 300 300 300 300 300 301 301 302 300 300 301 302 303 302 303 303 303 305 311 312 312 311 311 312 311 314 314 318 319 316

GFSMA_925_thetae_024.txt.gz
Theta_e
314 313 312 311 310 309 309 309 308 308 307 307 306 307 307 307 308 309 310 307 302 307 316 318 319 320 322 323 326 328 329 333 337 339 340 339 337 335 335 333 334 333 331
314 313 312 311 310 309 309 309 308 308 307 307 306 306 307 306 307 306 307 307 306 304 303 308 312 314 316 317 318 319 321 324 328 334 336 339 339 338 335 332 332 332 332
314 313 312 311 311 310 309 308 307 307 307 307 307 306 306 306 306 305 306 306 306 306 305 304 301 308 312 313 313 313 313 314 317 321 327 330 336 338 338 335 332 333 334
314 313 312 312 311 310 308 308 307 307 307 307 307 307 306 306 306 305 305 305 306 306 306 305 303 301 304 309 311 312 312 313 314 314 315 318 327 334 337 337 336 335 334
313 313 312 312 311 310 308 308 308 308 308 308 307 307 306 306 306 306 305 305 305 304 304 304 305 305 305 305 309 310 312 313 314 314 314 314 315 323 330 335 336 336 336
313 313 312 311 311 310 309 308 308 307 307 308 307 306 305 306 306 306 305 305 305 305 304 304 304 304 306 306 306 308 310 311 312 313 313 315 315 315 320 325 333 335 337
312 312 312 311 311 309 309 308 307 308 307 306 306 306 307 307 306 305 306 305 305 305 304 304 304 304 303 304 305 306 307 307 309 311 313 314 315 315 316 318 320 328 334
312 312 312 311 311 309 309 309 307 307 307 307 305 307 304 307 306 305 305 305 304 304 304 304 304 304 303 303 303 304 303 304 308 309 311 312 314 315 316 316 317 319 322
313 312 312 311 311 309 309 309 308 307 307 306 305 305 304 303 305 306 305 305 304 304 304 304 304 303 303 303 303 303 304 305 306 307 309 310 312 314 315 315 316 318 318
313 312 311 311 310 309 309 308 308 307 308 307 305 304 304 304 301 301 305 305 305 304 303 303 303 303 302 303 303 303 303 304 305 306 307 308 310 311 312 314 315 316 318
314 312 311 311 310 309 309 309 308 307 307 307 306 305 303 304 304 302 301 304 305 304 303 302 302 302 303 303 303 303 303 304 305 305 306 307 308 309 310 312 313 315 316
313 312 311 310 310 309 309 308 308 307 307 305 306 306 305 304 304 303 300 301 301 302 302 302 302 302 302 302 303 303 303 303 305 305 305 306 307 308 309 310 312 313 315
313 312 311 310 309 309 308 308 307 306 306 305 304 305 304 304 304 303 303 301 300 302 302 302 302 302 302 302 303 303 304 304 304 304 305 306 306 307 307 308 310 312 314
313 312 311 309 309 308 308 307 307 306 305 305 304 304 304 303 303 303 302 302 299 300 301 302 301 302 302 302 303 303 303 303 304 304 304 304 305 306 307 307 309 311 312
314 311 310 309 308 308 307 307 306 305 305 304 304 304 304 303 303 302 302 302 301 298 298 301 301 302 302 303 303 303 303 303 303 303 304 305 305 304 306 306 309 310 311
315 311 310 309 308 307 307 306 306 305 305 304 304 304 304 303 303 302 302 301 301 301 299 301 302 303 303 303 303 302 302 302 302 303 303 303 303 305 305 307 308 309 310
316 312 310 309 308 307 307 306 305 305 304 304 304 304 303 303 302 302 301 301 300 301 301 302 303 303 303 303 303 302 301 303 302 303 303 303 304 305 306 307 308 309 309
315 313 310 309 308 307 306 306 305 304 304 304 303 303 303 302 301 301 301 300 300 301 302 302 303 302 302 302 302 302 302 302 303 303 303 305 305 305 307 307 307 308 309
314 313 310 308 307 306 306 305 304 304 303 303 303 303 302 302 301 301 300 300 302 302 303 302 302 302 302 301 301 302 302 302 303 303 304 305 305 305 306 306 306 307 307
313 312 310 308 307 306 305 305 304 303 303 303 303 302 302 301 301 300 300 301 302 302 302 301 301 301 300 301 300 301 301 302 304 304 304 304 305 306 307 307 307 307 308
310 312 309 308 307 306 305 304 303 303 303 302 302 302 301 301 300 300 301 302 302 302 302 301 301 300 300 300 300 300 301 302 303 303 303 303 304 305 305 306 308 309 308
309 310 308 307 307 305 305 304 303 303 302 302 301 301 300 300 301 302 303 304 303 302 301 301 301 301 301 301 301 302 303 303 303 304 304 304 304 305 306 307 308 308 308
308 309 308 307 306 305 305 304 303 302 302 301 301 301 300 300 301 301 301 301 301 301 301 302 302 301 301 302 302 302 303 304 305 305 305 305 305 306 306 306 308 307 309
307 308 307 306 305 305 304 305 303 302 301 301 301 300 301 301 301 301 300 300 300 300 301 301 301 302 301 302 303 304 304 304 304 305 305 306 306 306 306 307 309 308 308
306 307 307 306 305 304 305 305 302 301 301 301 301 301 301 301 301 301 301 300 300 301 302 300 301 300 302 303 303 304 304 304 304 305 307 307 307 307 308 309 309 308 308
306 307 306 305 304 304 305 304 301 301 301 301 301 301 301 301 300 301 301 300 301 301 301 300 300 301 301 302 303 303 303 304 305 309 310 309 309 310 310 310 309 308 309

GFSMA_925_thetae_027.txt.gz
Theta_e
318 315 313 311 310 309 309 308 308 307 307 307 307 307 307 309 310 311 310 307 304 316 319 319 321 322 323 325 327 328 330 331 335 337 339 339 339 336 334 333 334 333 332
316 313 313 312 310 309 309 308 308 308 307 306 306 306 307 306 307 307 306 306 305 305 310 312 314 316 318 318 318 320 321 323 326 332 334 337 339 339 338 335 333 333 333
315 313 312 312 311 309 309 308 308 308 307 306 306 306 306 306 306 305 305 306 306 306 305 304 304 310 312 314 314 313 313 313 314 319 327 331 328 335 338 338 336 334 333
314 313 312 312 311 310 309 308 307 307 307 307 306 306 306 306 306 305 305 305 305 305 305 305 304 302 306 309 311 312 313 314 315 314 312 311 318 326 330 336 337 337 336
314 314 313 312 311 310 309 308 307 307 307 307 307 307 306 306 306 305 304 304 304 304 304 303 304 303 305 307 308 309 311 313 314 314 315 315 315 314 323 326 331 335 336
313 314 313 312 311 310 309 308 308 307 307 307 307 307 305 305 306 306 305 305 304 305 304 304 303 303 305 308 307 308 309 310 310 312 314 315 315 316 316 318 322 329 331
314 313 313 312 311 311 310 309 308 308 307 307 307 306 306 306 306 306 306 305 305 305 304 304 303 303 303 304 304 305 307 307 308 310 311 313 315 316 316 317 317 321 322
315 313 313 312 311 311 310 309 308 307 307 306 305 304 301 305 306 305 305 306 305 304 304 303 303 303 303 303 303 303 304 305 306 308 309 311 312 314 316 316 317 317 319
315 314 313 312 312 311 310 309 308 307 307 307 306 304 301 302 303 305 304 305 304 304 304 303 304 303 303 303 303 303 303 303 306 307 308 309 310 312 313 314 315 316 317
316 314 313 312 312 311 310 309 309 308 307 307 306 305 304 304 299 301 304 304 304 304 304 303 303 303 302 302 302 303 303 303 305 306 307 308 309 310 311 312 313 314 315
316 315 313 312 312 311 311 310 309 308 307 306 306 304 303 303 302 299 299 302 304 304 303 302 302 301 302 303 303 302 302 303 304 306 306 307 308 309 309 310 311 312 314
317 315 314 312 312 311 311 310 309 308 307 307 306 306 304 303 302 301 298 299 300 303 302 302 301 302 302 301 302 302 303 303 304 305 305 306 306 307 309 309 310 310 313
316 315 314 313 312 312 311 310 309 308 308 306 306 306 305 304 304 303 302 299 299 301 302 301 301 301 301 302 303 303 303 304 305 305 305 305 306 307 306 307 308 308 310
317 316 315 313 312 311 311 310 309 309 308 307 306 305 305 304 304 304 303 301 298 298 300 300 301 300 301 301 302 302 303 303 303 304 304 304 304 305 305 306 307 307 308
316 316 315 313 311 311 310 309 309 308 308 307 305 304 304 304 304 303 303 302 300 297 296 300 300 301 301 302 303 303 303 302 302 304 303 303 304 304 304 305 306 307 308
312 315 313 312 311 310 310 309 308 308 307 306 305 304 304 303 303 303 302 302 301 300 297 300 300 300 301 303 303 302 302 302 302 302 303 304 304 304 305 305 306 306 308
308 314 313 311 309 309 309 308 308 307 306 305 304 304 304 303 303 303 302 301 301 301 298 300 300 301 302 303 302 302 302 302 301 301 303 303 303 303 304 305 306 307 308
307 309 312 310 309 308 308 307 307 306 306 305 304 304 304 303 303 303 302 301 301 300 300 299 301 302 302 302 301 301 301 301 302 301 302 303 303 304 305 305 306 306 308
307 307 309 310 309 308 307 307 306 305 305 305 304 304 303 303 303 302 301 301 300 300 300 301 301 301 301 301 300 300 300 300 300 301 302 304 305 305 306 306 305 305 306
307 308 309 309 309 308 307 306 305 305 304 304 304 303 303 303 302 301 301 300 300 301 301 301 301 301 300 300 300 300 299 300 300 301 302 303 304 304 305 305 306 306 306
305 306 309 308 309 307 306 305 305 304 304 303 304 303 303 302 302 301 300 300 301 302 302 301 301 300 300 299 299 300 299 300 300 301 302 302 302 302 303 304 305 306 308
305 305 306 308 308 307 306 305 304 303 304 303 303 303 303 302 302 302 302 302 303 303 303 301 300 300 300 300 301 300 300 301 301 301 302 303 304 304 304 304 304 305 306
305 303 305 307 308 307 306 305 304 303 303 303 303 302 302 301 301 301 303 304 304 302 302 302 301 301 300 300 300 300 301 302 303 304 305 305 305 305 305 305 305 305 306
304 303 304 306 307 306 306 306 304 303 303 302 302 301 300 300 300 301 301 301 300 300 300 300 302 301 301 300 301 302 303 304 304 304 304 305 305 305 305 305 305 305 306
303 302 302 305 306 305 306 307 304 302 302 302 301 300 300 300 301 301 301 301 300 300 300 301 301 300 301 302 302 302 303 304 304 304 304 305 305 306 306 306 306 305 308
302 301 302 306 305 305 307 308 304 302 301 300 300 300 300 301 302 302 301 300 300 300 300 301 300 300 300 300 301 302 302 303 303 304 304 306 308 307 308 306 307 308 308

GFSMA_925_thetae_030.txt.gz
Theta_e
323 322 318 311 309 309 308 309 307 307 308 307 308 310 312 313 315 314 312 309 312 322 322 322 323 324 325 327 328 329 330 332 335 338 339 338 338 336 334 334 333 333 332
319 319 318 313 311 309 309 308 307 307 306 306 306 307 307 307 309 308 307 306 305 310 315 315 317 318 320 320 319 320 323 325 326 330 333 334 338 338 337 337 335 334 333
316 317 316 313 312 310 309 309 308 307 307 306 306 305 306 306 306 306 305 306 306 306 305 305 309 313 314 314 314 314 314 316 316 318 324 330 327 329 336 338 337 337 334
317 316 315 313 312 311 309 309 308 307 307 306 306 306 305 306 306 305 305 305 305 305 305 303 303 301 309 310 311 312 313 314 315 315 315 315 317 320 328 331 335 335 336
316 315 314 313 312 311 310 309 308 307 307 306 306 306 306 306 306 305 305 305 304 304 304 304 304 303 305 307 309 309 311 313 313 314 315 315 316 317 317 323 327 330 333
315 314 314 313 313 312 310 309 308 306 306 306 306 306 306 306 306 305 305 305 304 304 305 304 304 303 305 308 308 308 309 310 310 311 313 314 316 316 317 317 319 321 325
315 314 314 314 313 312 311 310 308 307 307 307 307 307 307 305 305 305 305 305 304 304 305 304 303 303 303 308 306 306 307 309 308 309 311 312 314 315 316 317 317 318 320
314 314 313 313 313 312 311 310 309 307 307 307 306 303 301 304 305 305 305 305 305 305 305 304 303 303 303 303 303 303 304 305 306 307 309 310 312 313 314 315 317 317 318
313 314 314 313 313 313 312 311 309 308 307 306 306 304 299 301 301 304 305 305 305 305 304 304 303 303 303 303 303 303 303 303 306 307 308 309 310 311 312 313 314 315 316
317 313 313 314 313 313 312 311 310 309 308 306 305 305 304 304 300 301 303 304 304 304 304 303 303 303 303 303 302 302 302 303 305 305 307 308 309 310 311 312 312 313 314
311 315 315 313 313 313 313 312 310 310 308 307 307 305 303 302 302 298 299 301 303 303 303 303 303 302 302 301 302 302 302 302 303 305 306 307 308 308 310 310 311 312 312
311 311 314 313 313 313 312 312 311 310 309 308 307 306 305 302 300 300 296 297 300 303 303 302 302 302 301 302 301 301 302 302 307 307 306 307 307 307 308 309 310 310 311
309 310 311 313 311 311 312 312 311 310 310 309 307 306 306 304 303 302 301 298 298 301 301 302 301 301 301 301 302 302 303 303 304 306 306 306 306 307 307 308 307 308 309
310 309 308 312 312 311 311 312 311 310 309 309 308 307 306 305 304 303 302 300 297 297 299 301 300 300 301 301 301 301 302 302 303 305 305 305 305 305 305 306 306 307 308
310 308 308 308 312 311 310 311 310 310 309 309 308 307 306 306 305 304 303 303 300 296 296 299 300 300 300 300 301 302 303 303 302 303 304 305 304 304 305 305 305 306 306
308 308 307 308 311 311 310 310 309 309 308 308 308 308 307 305 305 304 303 303 302 300 296 299 300 300 300 300 302 303 303 301 302 303 304 303 303 304 304 305 305 306 306
307 307 307 307 309 311 310 308 309 309 308 307 307 308 307 305 304 303 303 302 301 301 297 300 299 300 300 301 302 302 302 301 301 301 302 303 304 304 304 304 304 306 305
308 307 306 307 308 310 309 308 308 308 308 306 306 306 306 304 303 303 302 302 301 301 300 298 299 299 300 302 301 301 300 299 299 299 301 302 303 303 304 304 305 306 306
308 306 305 306 307 309 309 307 307 307 307 306 306 305 305 304 303 303 302 302 301 301 300 299 299 300 301 301 301 299 300 300 300 300 300 302 303 304 305 304 304 305 306
307 306 306 305 305 306 308 309 307 307 306 305 305 305 304 304 303 303 302 302 301 300 299 299 300 300 301 301 300 300 300 300 300 300 301 301 302 303 304 305 305 306 305
307 306 306 305 304 305 307 309 308 307 305 304 304 304 304 304 304 303 302 301 300 300 300 300 300 300 300 300 300 301 299 299 300 300 300 300 300 301 302 304 305 305 306
304 305 305 305 304 304 307 309 309 306 304 304 303 303 304 304 303 303 302 301 301 300 301 301 301 300 300 300 300 300 299 298 299 299 300 300 301 302 302 303 304 304 305
302 302 302 304 303 303 306 309 310 305 303 303 303 303 303 303 303 304 305 304 301 303 305 304 302 301 300 300 300 300 299 299 299 300 301 303 304 305 305 304 304 304 305
301 301 301 303 302 302 305 308 310 306 303 302 303 304 303 303 303 302 303 303 304 304 303 301 300 300 302 301 301 301 301 301 302 303 303 304 304 304 304 304 305 305 305
300 300 301 302 302 301 303 307 310 307 302 301 303 303 303 302 302 301 300 301 301 300 300 300 301 302 301 301 301 301 301 302 303 303 304 304 304 305 304 305 305 305 305
299 300 301 302 301 301 305 308 310 304 300 299 301 302 302 302 300 301 301 300 300 300 299 300 301 299 299 299 298 300 300 302 302 303 304 304 304 304 306 306 306 305 306

GFSMA_925_thetae_036.txt.gz
Theta_e
324 319 318 318 311 308 308 308 308 308 308 311 312 314 317 321 324 324 322 317 316 324 326 326 327 328 329 330 329 330 333 334 337 336 337 337 336 335 333 335 334 333 330
326 320 318 319 317 310 308 309 308 308 306 307 307 307 309 313 316 317 315 312 309 311 318 320 321 322 324 324 325 326 326 327 328 332 335 337 337 335 332 334 334 334 334
331 324 318 319 319 315 310 309 309 308 307 306 305 305 306 306 308 310 309 307 306 307 307 307 312 317 318 317 316 317 318 320 322 325 326 328 331 332 336 336 334 335 335
336 329 321 317 319 318 313 310 309 308 308 307 306 305 305 305 305 306 306 306 305 306 306 305 303 310 313 313 313 312 313 314 313 313 317 320 323 327 329 327 330 332 332
334 331 326 319 318 319 315 312 310 308 308 307 307 306 305 305 305 305 305 305 305 305 305 304 304 305 308 310 311 311 311 313 312 313 314 315 314 316 320 322 324 327 329
321 327 327 322 318 318 316 313 311 309 308 308 307 306 306 305 305 305 305 305 305 305 304 304 305 306 307 311 310 311 311 311 311 310 312 313 315 316 316 316 317 319 325
313 313 314 318 319 317 316 314 311 309 309 307 306 305 305 305 306 306 305 305 305 305 304 304 304 304 303 307 312 312 310 311 313 310 310 311 312 314 315 316 317 317 318
308 310 313 313 311 314 314 313 311 309 308 307 305 302 302 304 305 306 305 305 304 305 304 304 304 304 303 303 308 310 308 308 309 309 309 311 311 312 314 314 315 315 317
305 305 306 310 312 312 310 312 311 309 307 307 305 306 299 301 298 303 304 304 304 304 304 304 304 304 304 303 303 303 303 303 307 308 309 310 311 311 312 313 314 315 315
306 305 306 307 309 310 310 311 310 310 307 306 304 305 305 303 300 301 303 303 303 304 304 304 304 304 304 303 303 303 303 302 303 307 307 309 310 311 312 312 313 314 314
305 306 306 307 307 308 308 310 310 309 308 307 306 306 303 301 301 299 300 300 302 304 304 304 304 304 304 303 303 302 302 302 302 307 307 308 309 310 311 311 312 313 313
303 304 306 307 306 305 307 308 308 309 308 308 307 306 306 303 299 298 296 297 300 303 304 304 304 304 303 303 303 302 302 301 302 306 308 308 308 309 310 311 311 312 312
303 303 303 307 306 305 306 306 307 308 309 307 306 306 306 307 308 304 301 296 297 301 302 303 303 303 303 303 302 301 301 302 301 303 307 308 309 309 310 310 310 311 311
302 302 302 305 307 306 305 306 306 307 308 308 307 306 306 305 306 307 305 300 296 296 298 302 302 302 302 302 301 301 301 301 302 306 306 307 307 307 308 308 308 309 309
301 301 301 306 308 307 306 305 306 307 308 308 307 307 306 306 305 305 306 305 303 297 296 300 302 302 302 302 301 300 301 301 302 301 304 305 306 306 306 307 307 308 308
300 300 301 303 304 307 306 305 305 305 307 308 308 307 306 305 305 305 304 305 304 302 299 301 301 301 301 301 300 300 299 299 300 301 305 305 304 305 306 306 306 306 306
300 300 300 302 303 303 304 306 305 305 305 307 307 307 306 306 305 304 304 303 303 303 300 300 300 300 299 299 300 299 299 300 301 302 302 301 302 304 304 305 305 305 306
300 300 300 300 301 302 304 306 305 305 304 305 307 307 306 305 304 303 303 302 301 302 302 298 300 299 299 299 299 299 299 300 301 301 301 300 302 303 303 303 304 305 306
299 300 300 299 300 302 305 305 304 303 303 303 305 307 307 305 305 302 302 302 301 301 302 301 300 300 299 299 299 299 299 300 301 301 300 300 302 303 303 304 304 304 304
299 299 299 300 302 304 304 302 302 302 302 303 304 305 306 306 305 303 301 302 301 300 300 300 299 299 299 299 299 299 300 300 300 300 300 300 300 300 301 302 303 303 305
299 299 299 302 298 299 303 302 302 302 303 304 305 305 306 306 306 305 302 301 300 299 298 298 297 297 298 298 299 299 300 300 301 300 299 299 298 297 297 299 301 302 304
298 299 299 300 298 299 302 302 301 301 302 304 304 304 306 307 307 308 307 303 301 300 298 298 297 297 298 299 299 300 300 298 297 299 299 298 298 298 299 300 302 302 303
297 298 299 299 298 298 300 300 300 301 302 303 303 304 304 307 307 307 308 308 304 302 304 302 299 299 299 299 299 300 300 299 298 299 299 298 299 299 299 300 302 302 303
297 297 298 298 298 299 299 298 299 301 301 302 303 303 303 306 305 305 305 307 305 304 303 302 302 301 300 301 302 301 300 300 300 300 299 299 299 299 300 301 303 303 303
296 296 297 297 297 297 297 297 299 301 301 302 303 303 303 306 304 306 305 305 304 303 303 302 301 301 304 302 301 303 301 299 299 298 298 298 299 301 302 303 304 304 304
295 296 296 296 295 295 295 297 299 301 301 302 302 302 304 305 305 307 306 304 302 303 303 304 303 303 303 302 301 301 299 298 298 298 301 300 302 303 304 304 304 304 304

GFSMA_925_thetae_042.txt.gz
Theta_e
340 337 333 329 325 323 320 317 316 315 314 313 313 315 320 325 327 329 329 329 328 325 327 325 321 327 330 331 330 331 333 338 338 336 336 335 333 332 332 333 333 333 331
341 339 337 333 328 324 321 317 314 313 312 312 311 311 313 317 321 323 324 324 321 317 321 326 325 327 328 329 330 330 330 332 334 336 336 337 336 335 335 335 335 335 334
338 337 337 335 333 327 323 318 315 313 312 311 310 310 310 312 316 317 319 319 317 314 311 320 321 322 324 326 325 326 325 326 328 329 332 335 336 336 336 335 334 334 332
331 333 334 333 333 329 325 321 317 315 313 312 312 310 309 310 312 313 314 314 314 313 314 308 311 316 319 322 320 318 318 320 322 323 324 325 329 332 333 334 334 333 334
316 321 327 328 328 330 329 324 320 317 315 314 312 311 310 310 309 310 312 313 312 312 313 313 307 309 315 317 317 316 315 316 316 314 316 318 320 323 323 325 327 328 327
310 312 315 319 323 324 325 327 325 320 316 315 314 312 311 310 310 309 309 310 311 312 312 313 312 311 307 313 315 315 315 315 315 314 314 314 312 313 314 317 320 323 325
308 309 310 312 315 319 321 322 324 322 319 316 314 313 313 312 311 310 309 309 310 310 312 312 312 311 312 312 314 314 315 316 315 314 313 313 313 314 315 317 316 316 317
307 308 308 309 310 312 315 317 317 321 320 318 314 314 318 317 313 312 311 310 309 309 310 311 311 310 311 311 312 313 315 316 316 317 315 313 313 313 314 315 316 316 317
306 307 307 307 308 309 310 312 316 315 315 318 315 315 317 319 321 316 312 311 310 309 309 310 310 310 309 309 309 308 311 314 314 313 316 314 313 314 314 315 315 316 316
305 306 306 306 306 307 308 309 310 313 314 314 316 313 311 313 319 320 312 310 310 309 309 309 309 309 309 308 308 307 308 310 309 310 312 312 313 314 314 314 315 315 316
304 304 304 303 304 304 305 307 308 309 311 312 312 314 311 310 310 311 318 314 309 309 309 309 309 309 308 308 308 308 304 304 304 304 310 311 312 312 313 314 315 314 315
304 304 304 303 303 303 304 305 307 308 308 310 310 311 312 312 312 309 311 315 318 314 309 309 309 308 308 308 308 307 306 303 303 303 304 309 311 311 312 313 315 315 315
303 303 304 303 303 302 304 304 306 308 307 308 309 310 310 310 311 310 310 311 316 315 312 310 309 308 308 308 308 307 306 304 303 303 303 306 309 310 311 312 313 314 315
302 303 303 303 302 302 302 303 305 307 308 307 307 308 309 310 310 309 310 310 313 315 313 312 309 308 308 308 308 307 307 304 303 303 303 303 308 310 310 311 312 313 314
301 301 301 301 302 302 302 302 303 307 307 306 306 307 309 309 310 309 309 310 311 312 316 314 311 309 308 307 307 307 306 306 303 303 302 303 305 309 310 310 310 311 311
300 301 301 301 301 302 301 301 302 306 306 305 306 306 307 308 309 310 310 308 309 310 312 313 315 311 308 307 307 306 307 306 305 303 302 302 304 308 309 309 309 309 309
299 300 300 301 301 301 301 301 302 303 304 305 305 305 306 307 308 310 311 310 308 308 309 310 312 312 308 307 305 305 306 306 306 303 303 303 304 303 304 307 308 308 308
299 300 299 300 300 300 301 301 302 302 303 303 304 305 306 306 306 307 309 310 309 308 306 309 311 311 307 306 306 305 305 306 306 306 307 304 301 300 302 304 304 305 307
299 299 298 299 300 300 300 301 301 301 301 302 303 304 305 305 305 306 307 309 310 309 306 307 307 308 308 306 306 305 306 305 305 304 304 305 302 302 303 302 302 302 301
297 298 298 298 299 300 300 301 301 301 303 304 303 304 304 304 305 305 306 306 308 309 308 305 304 306 307 305 305 305 305 304 303 302 302 302 304 304 303 302 302 301 300
296 297 297 298 299 299 299 299 301 302 302 303 303 303 303 303 303 304 305 306 307 307 308 307 304 305 307 306 305 305 304 304 303 303 303 303 303 303 303 304 303 302 300
295 295 296 297 298 298 299 299 300 301 301 302 302 302 302 302 302 304 305 306 307 307 307 306 305 307 307 306 304 305 305 305 306 304 303 304 303 303 304 303 303 302 302
296 296 296 297 298 298 298 299 300 301 301 301 301 302 302 301 301 302 304 305 306 308 308 307 305 306 306 306 306 306 305 305 305 305 304 304 303 303 303 302 301 300 299
296 295 296 296 297 298 298 299 300 301 301 301 301 301 301 301 301 301 302 303 305 306 309 308 305 305 305 306 306 306 306 305 305 304 303 304 303 303 303 303 302 301 299
294 295 296 296 296 297 297 298 299 300 300 300 300 300 299 300 300 301 302 303 304 306 308 309 308 305 304 304 304 304 305 305 305 304 304 303 303 303 302 302 302 302 303
295 295 296 296 297 297 297 298 299 299 299 299 299 299 299 300 301 301 302 304 304 306 307 308 309 307 306 304 303 304 304 305 304 305 304 304 304 302 306 307 308 308 307

GFSMA_925_thetae_045.txt.gz
Theta_e
341 341 340 336 332 328 325 323 320 319 318 317 316 316 318 322 327 329 331 332 331 331 331 329 322 328 329 332 331 331 332 339 338 337 337 333 333 332 331 331 332 333 331
342 341 340 340 338 333 328 325 321 318 317 315 315 314 314 316 321 324 326 328 326 326 325 328 327 327 330 330 330 330 330 332 336 337 336 337 335 334 334 334 335 335 334
331 335 337 337 337 338 334 328 323 319 317 316 314 313 313 313 316 319 322 322 323 319 317 324 324 323 325 329 328 328 328 328 331 332 335 336 336 336 335 335 334 334 332
318 322 330 331 332 333 333 330 326 322 319 317 316 314 313 312 312 315 317 319 318 318 316 311 319 320 321 325 325 322 324 324 325 326 327 329 332 334 334 334 333 333 333
311 312 316 320 326 327 328 330 330 327 322 319 317 316 315 313 312 312 314 315 316 315 315 316 310 313 318 320 323 320 318 319 319 319 321 322 324 326 328 330 331 330 329
309 310 310 312 315 319 324 324 326 329 328 321 319 318 316 314 313 312 312 313 314 314 313 314 315 311 311 317 319 319 318 317 317 316 317 316 315 317 319 322 324 325 326
307 307 309 309 310 311 314 319 321 324 325 327 321 319 318 316 315 313 312 312 312 313 314 313 315 314 313 312 316 318 318 318 317 316 315 315 315 315 316 318 317 317 318
306 306 307 308 309 309 310 312 315 319 321 322 324 321 320 320 317 316 314 313 312 312 313 314 314 314 313 314 312 315 317 318 318 317 316 315 315 314 315 316 317 317 317
305 305 306 307 307 307 308 309 311 313 318 319 319 320 321 320 322 319 317 314 313 312 312 312 313 313 312 313 313 312 314 316 318 319 319 317 315 315 315 315 316 316 317
305 305 305 306 306 306 306 306 307 309 311 315 316 316 317 315 319 323 319 317 315 314 313 312 312 312 312 311 312 312 311 312 317 318 317 319 317 315 316 316 316 316 317
305 305 305 305 305 305 305 305 305 306 308 309 312 314 316 315 314 314 314 318 315 314 313 312 311 312 311 311 310 310 309 307 311 315 314 315 315 315 316 316 316 316 316
305 304 304 305 305 305 305 304 305 306 306 308 309 311 313 314 312 313 313 313 314 313 311 312 311 311 311 311 310 310 309 307 307 309 308 313 313 314 315 315 316 317 316
304 304 304 304 305 305 305 304 304 305 306 307 309 309 310 312 313 313 312 313 312 312 314 312 311 311 311 311 310 309 309 308 305 305 304 307 312 313 313 314 315 316 316
303 303 303 303 303 303 304 304 304 304 305 306 308 308 308 309 311 312 312 311 311 311 312 314 313 311 311 310 310 309 309 308 307 303 303 303 305 309 312 313 313 314 316
302 301 302 302 303 303 303 303 303 304 304 304 307 308 307 308 309 310 312 311 311 312 312 312 315 312 311 310 310 309 309 308 307 304 303 303 304 304 311 312 312 313 314
301 302 302 302 302 302 302 302 303 303 303 303 306 308 307 307 307 309 311 311 310 311 312 313 314 315 312 311 310 309 310 309 308 305 304 303 304 304 307 310 311 312 312
300 301 301 301 301 301 301 302 302 303 303 303 304 306 306 306 307 308 309 311 312 311 312 312 313 312 313 310 309 309 308 308 308 307 304 303 303 303 304 307 309 309 309
299 299 300 300 301 301 301 301 302 302 302 302 303 305 305 305 306 307 307 309 311 311 311 311 312 312 312 312 309 308 307 308 308 308 306 305 304 303 304 305 305 306 306
297 298 298 298 299 300 300 300 301 302 302 302 302 303 304 304 305 307 306 307 309 310 310 310 310 311 311 310 309 309 307 307 307 307 307 306 306 304 304 303 301 302 303
296 296 297 297 298 299 299 300 301 301 302 302 302 302 302 303 304 305 305 306 306 308 309 309 309 310 310 310 308 308 307 307 307 306 308 307 308 306 303 301 301 302 303
297 296 296 296 297 297 298 299 300 301 301 302 302 303 303 303 304 304 305 305 306 307 308 309 308 308 309 309 309 307 308 308 308 306 305 304 305 305 304 304 304 303 302
297 297 296 296 297 296 296 298 299 300 300 301 302 302 303 303 303 303 304 304 305 306 308 308 308 307 308 308 308 306 306 307 308 306 304 304 303 303 305 306 305 303 302
297 297 297 297 297 297 297 298 299 300 301 301 300 299 303 302 302 302 302 303 304 305 306 307 307 306 307 309 308 306 306 306 307 307 305 306 305 305 305 305 305 305 304
296 297 295 296 296 296 297 298 299 300 300 300 300 302 302 302 302 302 302 302 303 304 305 306 307 307 307 308 309 307 306 306 306 307 306 306 306 305 305 304 304 303 302
296 296 296 295 296 296 297 298 298 299 299 299 300 301 301 301 302 302 302 302 302 302 302 305 306 307 308 308 307 306 306 306 307 306 305 305 305 305 305 305 304 304 303
296 296 295 295 295 296 297 297 298 299 299 299 300 300 301 301 301 301 301 302 302 302 303 303 305 307 308 307 307 305 305 306 306 306 306 305 305 305 305 304 303 303 304

GFSMA_925_thetae_048.txt.gz
Theta_e
341 341 340 339 339 333 330 327 325 322 320 319 318 317 317 319 324 328 330 332 333 332 331 332 329 329 330 332 330 331 335 339 338 337 334 336 337 335 330 331 331 331 330
326 332 336 339 339 338 337 335 328 324 320 318 317 316 315 315 316 323 327 329 329 328 327 331 329 327 329 331 330 330 331 335 337 337 336 336 334 333 331 333 332 333 333
315 316 319 323 329 333 336 336 334 327 323 319 317 316 314 314 314 315 322 325 326 324 322 326 329 327 327 330 330 329 329 329 332 337 337 337 336 334 334 333 334 334 333
310 311 311 314 320 325 323 327 332 333 329 324 319 317 316 314 313 313 316 320 322 321 320 317 324 325 324 327 329 327 328 328 328 331 333 336 336 335 335 334 334 333 332
307 308 309 310 311 313 321 322 322 326 330 329 325 320 318 316 314 312 312 316 319 320 319 317 313 316 322 322 327 326 324 325 325 325 327 329 331 333 333 333 333 331 332
306 307 307 308 309 310 311 315 322 320 322 324 326 326 320 318 316 314 312 313 315 317 316 315 315 313 312 320 323 325 322 321 323 322 322 323 324 325 326 327 328 328 328
306 306 306 306 308 309 309 310 311 316 320 320 322 325 325 321 319 316 313 312 313 314 314 314 314 315 313 312 319 322 322 320 319 319 319 319 319 320 319 320 322 324 325
305 306 305 305 306 307 308 308 309 311 313 318 320 321 323 322 320 318 316 313 312 313 314 313 312 315 314 311 309 318 320 320 320 319 317 317 316 317 317 318 318 318 317
305 305 306 306 306 306 306 307 306 307 310 311 317 318 320 319 315 319 319 316 313 312 313 313 313 313 315 314 313 310 316 318 320 320 319 317 317 316 316 317 317 317 317
304 304 305 305 305 305 306 305 305 306 306 309 313 315 316 317 316 317 317 317 316 313 312 312 313 313 314 313 314 313 311 314 318 321 320 319 318 317 317 316 317 317 317
303 304 304 304 304 305 305 306 305 305 305 305 306 309 315 315 316 316 318 317 316 315 313 313 312 313 313 313 312 313 312 310 312 318 321 321 321 319 317 317 317 317 317
303 303 304 303 304 304 305 305 305 305 304 305 306 306 309 314 313 312 313 314 314 315 315 313 313 312 312 312 312 312 312 311 309 312 318 318 319 319 317 318 318 317 317
301 302 302 303 303 303 303 304 305 306 304 303 304 305 307 309 311 313 312 311 312 314 315 314 313 313 312 311 312 311 311 310 309 308 311 314 315 316 316 317 317 318 318
301 301 301 301 301 301 301 302 302 303 303 304 304 304 305 307 309 309 312 311 307 310 312 313 314 314 313 311 311 311 310 310 309 307 308 310 309 313 314 315 316 316 317
300 301 301 301 301 302 302 302 302 303 303 302 303 304 305 307 308 308 308 311 310 309 309 310 311 312 314 312 311 311 310 310 309 308 306 307 304 307 310 314 314 314 315
299 299 299 299 300 301 301 301 301 301 302 302 302 303 303 305 307 307 307 308 310 310 309 310 311 312 313 313 312 311 310 310 309 308 307 304 304 303 305 309 312 313 314
298 298 298 298 298 299 299 301 301 301 301 301 302 303 302 303 306 307 307 307 309 310 308 309 310 311 312 313 312 311 310 310 309 309 308 306 304 304 304 304 309 311 312
298 298 298 297 297 297 298 298 300 300 301 301 302 303 302 303 305 306 307 307 307 308 309 307 310 311 312 313 313 312 310 309 309 309 308 307 305 304 304 304 305 306 310
296 296 297 297 297 296 297 297 298 299 300 300 301 302 302 302 303 305 304 306 307 307 307 309 310 310 310 311 311 312 309 308 308 308 308 307 306 305 304 304 304 304 306
296 296 297 297 297 297 296 297 297 298 299 300 301 301 302 302 302 303 304 306 306 306 307 308 309 309 309 310 310 310 308 307 307 308 308 307 307 307 305 304 303 304 303
296 296 296 296 297 297 297 297 297 297 298 299 300 301 301 302 302 302 303 305 305 305 306 307 308 308 308 308 309 309 308 307 307 307 307 308 309 309 308 305 304 303 301
296 296 296 296 296 297 297 298 298 298 297 298 299 301 300 301 302 303 302 305 302 304 304 305 307 307 307 307 308 308 307 307 306 307 307 308 307 309 308 307 305 302 300
296 295 296 296 296 297 297 298 298 298 298 298 300 300 301 301 301 301 300 305 304 305 305 305 305 307 306 306 307 308 307 306 307 307 307 305 306 305 304 304 303 302 302
295 296 296 296 295 295 297 297 298 298 298 298 299 300 300 300 300 299 300 301 303 303 304 304 305 305 306 306 305 307 308 306 306 307 306 305 304 304 304 304 304 304 304
296 296 296 295 295 295 296 296 297 297 298 298 299 299 299 300 300 300 303 302 302 302 303 304 304 305 306 306 306 306 308 305 306 306 306 305 305 306 305 305 305 305 304
295 296 297 295 296 296 296 296 297 297 298 298 299 299 300 300 300 302 302 301 301 301 302 302 301 301 304 306 307 307 307 306 305 305 306 306 306 306 304 305 304 304 305